全球星 M061星 (GLOBALSTAR M061)

导读 | 星芒AI

GLOBALSTAR M061 是 Globalstar 卫星通信公司部署的一颗低轨移动通信卫星,属于其第二代卫星星座(Globalstar 2)。该卫星运行在约1414公里高度的近极地轨道,主要用于提供语音和数据通信服务,覆盖全球大部分地区。M061 卫星采用先进通信技术,支持手持终端和移动平台的连接,广泛应用于航空、航海及偏远地区通信。它是 Globalstar 扩展其卫星通信网络、提升服务质量和覆盖范围的重要组成部分。

基本信息
目录编号:
25964
目录名称:
GLOBALSTAR M061
国际标识:
1999-062D
轨道中心:
EARTH
卫星名称:
全球星 M061星
卫星全名:
全球星 M061星 (GLOBALSTAR M061)
卫星状态:
在轨 (已飞行9521 天)
发射日期:
1999-11-22 UTC
国别 :
(GLOB)
星等 :
--
轨道信息
数据来源 国际轨道数据 AOE轨道数据
星历时间 2025-12-15T15:02:41+0800
18小时前
查看轨道信息
2025-12-15T04:00:00+0800
1天前
查看轨道信息
半长轴 8164.674km 8164.672km
偏心率 0.0005093 0.0005121
轨道倾角 51.980° 51.979°
近地点辐角 305.278° 305.970°
升交点赤经 87.050° 88.240°
平近点角 88.097° 296.960°
近地点 1782.38km 1782.355km
远地点 1790.698km 1790.719km
周期 122.368分钟 122.368分钟
每日圈数 11.767779 11.767783
详细信息
固有亮度:
5
最大亮度:
7.9
平衡模式:
三轴稳定
覆盖范围:
全球
运营商:
全球星公司
运营商所在国:
美国
使用方式:
暂无
卫星简介
全球星星座由48颗卫星加8颗备份星组成。这些卫星分布在8个倾角为52度的圆形轨道平面上,每个轨道平面6颗卫星,另有1 颗备用星。轨道高度约为1414km,传输时延和处理时延小于300ms,整个系统的覆盖区为南北纬70度以内的地区。该卫星已退役。
2D轨道图
3D轨道图
轨道高度分析图
轨道倾角分析图
轨道综合分析图
查看轨道综合分析图